Location: Hylvaty SDH
(49.9612°N, 16.4057°E)
Time: 11:55:29
(UTC+01:00)

A-11 Canister half - Pass Details

Date: 11 October 2020
Orbit: 1526 x 1683 km, 47.3° (Epoch: 28 October)

Event Time Altitude Azimuth Distance (km) Brightness Sun altitude
Rises 22:24:13 0° 261° (W) 4,678 12.0 -38.8°
Reaches altitude 10° 22:27:14 10° 260° (W) 3,693 11.3 -39.2°
Enters shadow 22:33:39 50° 250° (WSW) 1,879 9.4 -39.9°
Maximum altitude 22:36:31 77° 177° (S) 1,570 - -40.2°
Drops below altitude 10° 22:45:55 10° 94° (E) 3,743 - -41.2°
Sets 22:49:01 0° 93° (E) 4,745 - -41.5°
